EW9318 Weather Reports


Display with metric or nautical units.
time (UTC)temp
F
wind
direction
speed
MPH
gust
MPH
rain 1hr
in
rain 24hr
in
rain mn
in
humidity
%
barometer
mb
20260904165016 67 167 12.0 19.0 0.05 0.27 0.22 95 1010.3
20260904164515 67 164 10.0 18.0 0.05 0.27 0.22 95 1010.9
20260904164016 67 165 10.0 17.0 0.04 0.26 0.21 95 1011.5
20260904163517 67 163 11.0 17.0 0.05 0.26 0.21 95 1011.8
20260904163016 68 165 8.0 14.0 0.04 0.25 0.20 95 1012.6
20260904162515 68 191 6.0 11.0 0.04 0.25 0.20 95 1013.5
20260904162036 68 197 5.0 12.0 0.04 0.24 0.19 96 1013.8
20260904161516 68 234 8.0 18.0 0.04 0.24 0.19 96 1014.3
20260904161017 69 243 11.0 25.0 0.05 0.24 0.19 96 1014.9
20260904160517 69 249 14.0 25.0 0.04 0.23 0.18 96 1015.0
20260904160015 69 266 11.0 21.0 0.04 0.23 0.18 96 1014.9
20260904155516 69 234 5.0 10.0 0.05 0.23 0.18 96 1014.0
20260904155036 69 192 3.0 9.0 0.04 0.22 0.17 96 1013.3
20260904154515 69 158 5.0 9.0 0.04 0.22 0.17 96 1013.2
20260904154036 69 134 3.0 9.0 0.05 0.22 0.17 96 1013.5
20260904153515 69 146 4.0 14.0 0.04 0.21 0.16 96 1013.7
20260904153016 69 168 5.0 14.0 0.04 0.21 0.16 96 1013.8
20260904152515 69 169 6.0 16.0 0.04 0.21 0.16 96 1013.7
20260904152016 69 170 7.0 16.0 0.04 0.20 0.15 96 1013.9
20260904151515 69 157 6.0 13.0 0.04 0.20 0.15 96 1013.9
20260904151038 69 130 7.0 10.0 0.03 0.19 0.14 96 1014.1
20260904150515 69 126 6.0 9.0 0.04 0.19 0.14 96 1014.3
20260904150037 69 99 4.0 6.0 0.04 0.19 0.14 96 1014.7
20260904145515 69 106 2.0 4.0 0.03 0.18 0.13 96 1014.9
20260904145017 68 93 2.0 7.0 0.04 0.18 0.13 96 1014.9
20260904144515 68 99 3.0 9.0 0.04 0.18 0.13 96 1014.7
20260904144015 68 90 5.0 9.0 0.03 0.17 0.12 96 1014.6
20260904143515 68 73 2.0 5.0 0.04 0.17 0.12 96 1014.8
20260904143015 68 62 3.0 8.0 0.04 0.17 0.12 96 1015.0
20260904142515 68 63 4.0 8.0 0.04 0.17 0.12 96 1014.8
20260904142015 68 79 4.0 8.0 0.03 0.16 0.11 96 1014.4
20260904141515 68 95 5.0 7.0 0.04 0.16 0.11 96 1014.4
20260904141017 68 100 2.0 4.0 0.04 0.16 0.11 96 1014.9
20260904140515 68 138 2.0 6.0 0.03 0.15 0.10 96 1015.0
20260904140015 68 115 2.0 6.0 0.04 0.15 0.10 96 1015.1
20260904135515 68 74 2.0 5.0 0.04 0.15 0.10 96 1015.4
20260904135015 68 47 1.0 4.0 0.03 0.13 0.09 96 1015.3
20260904134517 68 26 1.0 5.0 0.04 0.13 0.09 96 1015.3
20260904134016 68 69 2.0 5.0 0.04 0.13 0.09 96 1015.6
20260904133515 68 40 2.0 7.0 0.04 0.12 0.08 96 1015.1
20260904133015 68 343 4.0 7.0 0.04 0.12 0.08 96 1015.6
20260904132515 68 351 2.0 6.0 0.04 0.12 0.08 96 1015.2
20260904132015 68 17 2.0 5.0 0.05 0.12 0.08 96 1014.8
20260904131515 68 4 2.0 5.0 0.04 0.11 0.07 96 1014.9
20260904131015 68 41 1.0 4.0 0.04 0.11 0.07 96 1014.7
20260904130517 68 82 2.0 7.0 0.05 0.11 0.07 96 1014.3
20260904130015 68 80 3.0 7.0 0.04 0.10 0.06 96 1014.2
20260904125537 68 67 3.0 5.0 0.04 0.10 0.06 96 1014.0
20260904125016 68 85 2.0 4.0 0.05 0.10 0.06 96 1013.6
20260904124516 68 111 3.0 4.0 0.04 0.10 0.05 96 1013.6
20260904124015 68 124 1.0 4.0 0.04 0.10 0.05 96 1013.5
20260904123536 68 111 2.0 6.0 0.04 0.09 0.04 96 1013.4
20260904123015 68 111 3.0 6.0 0.04 0.09 0.04 96 1013.4
20260904122515 68 95 2.0 5.0 0.04 0.09 0.04 95 1013.5
20260904122015 68 83 3.0 6.0 0.03 0.08 0.03 95 1013.4
20260904121515 68 82 3.0 7.0 0.03 0.08 0.03 95 1013.3
20260904121036 68 88 4.0 8.0 0.03 0.08 0.03 95 1013.0
20260904120515 68 104 6.0 8.0 0.02 0.07 0.02 95 1012.9
20260904120015 68 102 4.0 9.0 0.02 0.07 0.02 95 1013.1
20260904115516 68 51 4.0 10.0 0.02 0.07 0.02 95 1013.2
20260904115016 68 31 6.0 13.0 0.01 0.06 0.01 95 1013.1
20260904114515 69 53 7.0 13.0 0.01 0.06 0.01 95 1013.0
20260904114055 69 4 7.0 21.0 0.01 0.06 0.01 95 1014.2
20260904113557 69 339 13.0 22.0 0.00 0.05 0.00 95 1014.2
20260904113016 69 345 15.0 22.0 0.00 0.05 0.00 95 1014.3
20260904112515 69 357 4.0 13.0 0.00 0.05 0.00 95 1013.3
20260904112015 69 133 0.0 3.0 0.00 0.05 0.00 95 1012.7
20260904111515 69 112 1.0 3.0 0.00 0.05 0.00 95 1012.4
20260904111015 69 76 1.0 3.0 0.00 0.05 0.00 95 1012.6
20260904110515 69 79 1.0 4.0 0.00 0.05 0.00 95 1012.6
20260904110018 69 92 1.0 4.0 0.00 0.05 0.00 95 1012.5
20260904105517 68 117 2.0 4.0 0.00 0.05 0.00 96 1012.3
20260904105037 68 119 1.0 3.0 0.00 0.05 0.00 96 1012.3
20260904104517 68 86 2.0 3.0 0.00 0.05 0.00 96 1012.6
20260904104017 68 72 1.0 3.0 0.00 0.05 0.00 96 1012.5
20260904103517 68 0.0 3.0 0.00 0.05 0.00 95 1012.4
20260904103017 68 69 1.0 4.0 0.00 0.05 0.00 95 1012.2
20260904102517 68 72 2.0 4.0 0.00 0.05 0.00 96 1012.1
20260904102017 68 94 1.0 3.0 0.00 0.05 0.00 96 1011.9
20260904101517 68 108 2.0 4.0 0.00 0.05 0.00 96 1011.7
20260904101037 68 109 1.0 10.0 0.00 0.05 0.00 96 1011.6
20260904100518 68 88 6.0 10.0 0.00 0.05 0.00 96 1011.7
20260904100017 68 96 4.0 8.0 0.00 0.05 0.00 96 1011.7
20260904095517 68 91 4.0 7.0 0.00 0.05 0.00 96 1011.6
20260904095017 68 83 3.0 6.0 0.00 0.05 0.00 96 1011.6
20260904094517 68 72 2.0 5.0 0.00 0.05 0.00 96 1011.6
20260904094037 68 44 2.0 5.0 0.00 0.05 0.00 96 1011.7
20260904093517 68 35 2.0 5.0 0.00 0.05 0.00 96 1011.7
20260904093017 68 44 1.0 4.0 0.00 0.05 0.00 96 1011.5
20260904092517 68 36 1.0 3.0 0.00 0.05 0.00 96 1011.3
20260904092017 67 47 1.0 3.0 0.00 0.05 0.00 96 1011.2
20260904091517 67 0.0 1.0 0.00 0.05 0.00 96 1011.1
20260904091038 67 123 0.0 2.0 0.00 0.05 0.00 96 1010.9
20260904090517 68 121 0.0 2.0 0.00 0.05 0.00 96 1010.8
20260904090017 68 120 0.0 2.0 0.00 0.05 0.00 96 1010.9
20260904085518 68 121 0.0 2.0 0.00 0.05 0.00 96 1011.2
20260904085018 68 121 0.0 2.0 0.00 0.05 0.00 96 1011.2
20260904084517 68 119 0.0 2.0 0.00 0.05 0.00 95 1011.5
20260904084017 68 119 1.0 2.0 0.00 0.05 0.00 95 1011.5
20260904083517 68 0.0 0.0 0.00 0.05 0.00 96 1011.5
20260904083017 68 0.0 0.0 0.00 0.05 0.00 96 1011.6
20260904082517 68 0.0 0.0 0.00 0.05 0.00 96 1011.7
20260904082016 68 0.0 0.0 0.00 0.05 0.00 95 1011.6
20260904081517 68 0.0 0.0 0.00 0.05 0.00 96 1011.6
20260904081017 68 0.0 0.0 0.00 0.05 0.00 96 1011.5
20260904080518 68 0.0 0.0 0.00 0.05 0.00 96 1011.5
20260904080016 68 0.0 1.0 0.00 0.05 0.00 96 1011.6
20260904075516 68 78 0.0 1.0 0.00 0.05 0.00 96 1011.5
20260904075037 68 78 0.0 1.0 0.00 0.05 0.00 95 1011.6
20260904074516 68 78 0.0 1.0 0.00 0.05 0.00 95 1011.8
20260904074037 68 78 0.0 1.0 0.00 0.05 0.00 96 1012.0
20260904073537 68 78 0.0 1.0 0.00 0.05 0.00 95 1012.0
20260904073018 67 79 0.0 1.0 0.00 0.05 0.00 95 1012.0
20260904072518 67 81 0.0 2.0 0.00 0.05 0.00 95 1011.9
20260904072016 67 93 0.0 2.0 0.00 0.05 0.00 96 1011.7
20260904071516 67 108 0.0 2.0 0.00 0.05 0.00 96 1011.6
20260904071017 67 125 0.0 3.0 0.00 0.05 0.00 95 1011.7
20260904070517 67 132 1.0 4.0 0.00 0.05 0.00 95 1011.5
20260904070057 67 126 2.0 4.0 0.00 0.05 0.00 95 1011.6
20260904065517 67 121 2.0 4.0 0.00 0.05 0.00 95 1011.6
20260904065018 67 125 2.0 4.0 0.00 0.05 0.00 95 1011.7
20260904064516 67 120 1.0 3.0 0.00 0.05 0.00 95 1011.8
20260904064016 67 117 1.0 2.0 0.00 0.05 0.00 95 1012.0
20260904063538 68 114 1.0 3.0 0.00 0.05 0.00 95 1012.2
20260904063017 68 115 1.0 3.0 0.00 0.05 0.00 95 1012.3
20260904062518 68 108 1.0 3.0 0.00 0.05 0.00 95 1012.5
20260904062016 68 72 0.0 2.0 0.00 0.05 0.00 95 1012.7
20260904061517 68 59 0.0 2.0 0.00 0.05 0.00 95 1012.9
20260904061016 67 76 0.0 2.0 0.00 0.05 0.00 95 1013.0
20260904060516 67 103 0.0 2.0 0.00 0.05 0.00 95 1013.0
20260904060016 67 122 0.0 2.0 0.00 0.05 0.00 95 1013.0
20260904055517 67 121 1.0 2.0 0.00 0.05 0.00 95 1013.0
20260904055016 67 118 0.0 2.0 0.00 0.05 0.00 95 1012.9
20260904054537 68 124 0.0 2.0 0.00 0.05 0.00 95 1013.0
20260904054016 68 124 0.0 2.0 0.00 0.05 0.00 95 1013.2
20260904053516 68 117 1.0 2.0 0.00 0.05 0.00 95 1013.2
20260904053036 68 75 0.0 2.0 0.00 0.05 0.00 95 1013.1
20260904052516 68 74 0.0 2.0 0.00 0.05 0.00 95 1013.3
20260904052018 67 75 0.0 2.0 0.00 0.05 0.00 95 1013.2
20260904051518 67 105 1.0 3.0 0.00 0.05 0.00 95 1013.1
20260904051016 68 137 2.0 3.0 0.00 0.05 0.00 95 1012.9
20260904050538 68 141 1.0 3.0 0.00 0.05 0.00 95 1012.9
20260904050036 68 0.0 2.0 0.00 0.05 0.00 95 1013.1
20260904045516 68 80 0.0 2.0 0.00 0.05 0.00 95 1013.1
20260904045036 68 99 1.0 2.0 0.00 0.05 0.00 95 1013.0
20260904044516 68 111 1.0 2.0 0.00 0.05 0.00 95 1013.0
20260904044016 68 110 1.0 2.0 0.00 0.05 0.00 94 1013.0
20260904043516 68 111 0.0 2.0 0.00 0.05 0.00 94 1013.2
20260904043016 68 109 1.0 2.0 0.00 0.05 0.00 94 1013.4
20260904042518 68 106 1.0 3.0 0.00 0.05 0.00 94 1013.4
20260904042016 68 125 2.0 3.0 0.00 0.05 0.00 94 1013.4
20260904041516 68 134 2.0 3.0 0.00 0.05 0.00 94 1013.4
20260904041016 68 135 2.0 3.0 0.00 0.05 0.00 94 1013.5
20260904040538 69 122 1.0 3.0 0.00 0.05 0.00 94 1013.7
20260904040058 69 93 0.0 2.0 0.00 0.05 0.05 94 1013.7
20260904035617 69 93 0.0 2.0 0.00 0.05 0.05 94 1013.7
20260904035017 69 94 0.0 2.0 0.00 0.05 0.05 94 1013.8
20260904034516 69 0.0 0.0 0.00 0.05 0.05 94 1013.8
20260904034017 69 0.0 0.0 0.00 0.05 0.05 94 1013.7
20260904033538 69 0.0 1.0 0.00 0.05 0.05 94 1013.8
20260904033016 69 92 0.0 2.0 0.00 0.05 0.05 94 1013.8
20260904032518 69 34 0.0 2.0 0.00 0.05 0.05 94 1013.7
20260904032016 69 67 0.0 2.0 0.00 0.05 0.05 94 1013.7
20260904031516 69 67 1.0 2.0 0.00 0.05 0.05 94 1013.7
20260904031016 69 92 1.0 2.0 0.00 0.05 0.05 94 1013.6
20260904030517 70 0.0 0.0 0.00 0.05 0.05 94 1013.6
20260904030016 70 0.0 0.0 0.00 0.05 0.05 94 1013.5
20260904025516 70 0.0 0.0 0.00 0.05 0.05 94 1013.5
20260904025018 70 0.0 0.0 0.00 0.05 0.05 94 1013.5
20260904024516 70 0.0 1.0 0.00 0.05 0.05 94 1013.6
20260904024037 70 108 0.0 1.0 0.00 0.05 0.05 93 1013.5
20260904023537 70 96 0.0 2.0 0.00 0.05 0.05 93 1013.5
20260904023038 70 95 1.0 2.0 0.00 0.05 0.05 93 1013.5
20260904022518 70 67 1.0 2.0 0.00 0.05 0.05 93 1013.5
20260904022017 70 76 1.0 2.0 0.00 0.05 0.05 93 1013.5
20260904021518 70 77 0.0 1.0 0.00 0.05 0.05 93 1013.4
20260904021016 71 77 0.0 3.0 0.00 0.05 0.05 93 1013.4
20260904020517 71 76 1.0 3.0 0.00 0.05 0.05 93 1013.3
20260904020016 71 70 1.0 3.0 0.00 0.05 0.05 93 1013.2
20260904015516 71 65 1.0 2.0 0.00 0.05 0.05 93 1013.2
20260904015018 71 100 0.0 2.0 0.00 0.05 0.05 93 1013.2
20260904014537 71 99 1.0 4.0 0.00 0.05 0.05 93 1013.1
20260904014016 71 105 2.0 4.0 0.00 0.05 0.05 93 1013.1
20260904013518 71 92 2.0 4.0 0.00 0.05 0.05 93 1012.9
20260904013016 71 81 1.0 3.0 0.00 0.05 0.05 93 1013.0
20260904012516 71 94 2.0 4.0 0.00 0.05 0.05 92 1012.9
20260904012016 72 93 2.0 4.0 0.00 0.05 0.05 92 1012.9
20260904011517 72 99 2.0 3.0 0.00 0.05 0.05 92 1012.9
20260904011017 72 116 1.0 3.0 0.00 0.05 0.05 91 1012.8
20260904010517 72 119 2.0 4.0 0.00 0.05 0.05 91 1012.9
20260904010017 72 118 2.0 4.0 0.00 0.05 0.05 91 1012.8
20260904005517 72 119 1.0 4.0 0.00 0.05 0.05 91 1012.7
20260904005016 72 0.0 0.0 0.00 0.05 0.05 91 1012.8
20260904004516 73 0.0 0.0 0.00 0.05 0.05 90 1012.9
20260904004016 73 0.0 1.0 0.00 0.05 0.05 90 1012.7
20260904003516 73 118 0.0 1.0 0.00 0.05 0.05 90 1012.7
20260904003016 73 0.0 2.0 0.00 0.05 0.05 90 1012.6
20260904002516 73 77 0.0 2.0 0.00 0.05 0.05 90 1012.6
20260904002017 73 91 1.0 3.0 0.00 0.05 0.05 89 1012.5
20260904001516 74 108 2.0 4.0 0.00 0.05 0.05 89 1012.3
20260904001016 74 107 2.0 4.0 0.00 0.05 0.05 89 1012.2
20260904000516 74 126 2.0 5.0 0.00 0.05 0.05 89 1012.2
20260904000016 74 126 3.0 5.0 0.00 0.05 0.05 89 1012.2
20260903235516 74 115 3.0 4.0 0.00 0.05 0.05 89 1012.3
20260903235016 74 118 2.0 7.0 0.00 0.05 0.05 89 1012.2
20260903234517 74 129 2.0 7.0 0.00 0.05 0.05 89 1012.2
20260903234018 74 129 3.0 7.0 0.00 0.05 0.05 89 1012.1
20260903233558 75 111 3.0 7.0 0.00 0.05 0.05 88 1011.9
20260903233016 75 110 4.0 7.0 0.00 0.05 0.05 88 1012.0
20260903232516 75 110 4.0 7.0 0.00 0.05 0.05 88 1012.1
20260903232016 75 114 5.0 7.0 0.00 0.05 0.05 88 1012.0
20260903231516 75 115 3.0 6.0 0.00 0.05 0.05 88 1012.0
20260903231016 75 134 2.0 7.0 0.00 0.05 0.05 88 1012.0
20260903230516 75 130 4.0 7.0 0.00 0.05 0.05 87 1012.1
20260903230017 75 124 3.0 8.0 0.00 0.05 0.05 86 1012.0
20260903225516 76 126 4.0 9.0 0.00 0.05 0.05 86 1012.0
20260903225016 76 121 6.0 11.0 0.00 0.05 0.05 86 1011.9
20260903224517 76 122 7.0 11.0 0.00 0.05 0.05 85 1011.9
20260903224016 76 117 8.0 11.0 0.01 0.05 0.05 85 1012.0
20260903223536 76 113 7.0 9.0 0.01 0.05 0.05 85 1012.1
20260903223016 76 112 4.0 8.0 0.01 0.05 0.05 86 1012.0
20260903222516 76 137 3.0 8.0 0.01 0.05 0.05 87 1011.9
20260903222036 76 140 3.0 6.0 0.01 0.05 0.05 87 1012.0
20260903221536 75 122 3.0 6.0 0.01 0.05 0.05 88 1012.1
20260903221056 75 108 2.0 8.0 0.01 0.05 0.05 88 1012.1
20260903220517 75 100 5.0 8.0 0.01 0.05 0.05 88 1012.0
20260903220036 75 110 4.0 8.0 0.02 0.05 0.05 88 1012.1
20260903215516 75 117 4.0 7.0 0.02 0.05 0.05 88 1012.0
20260903215016 75 124 2.0 8.0 0.02 0.05 0.05 90 1012.0
20260903214516 75 136 4.0 8.0 0.02 0.05 0.05 90 1012.0
20260903214036 74 141 4.0 8.0 0.01 0.04 0.04 90 1011.8
20260903213516 74 142 3.0 7.0 0.01 0.04 0.04 91 1011.9
20260903213017 74 121 3.0 7.0 0.01 0.04 0.04 91 1012.1
20260903212516 74 143 2.0 5.0 0.01 0.04 0.04 91 1012.3
20260903212017 74 158 2.0 5.0 0.01 0.04 0.04 92 1012.2
20260903211536 73 147 0.0 4.0 0.01 0.04 0.04 92 1012.4
20260903211036 73 148 1.0 4.0 0.02 0.04 0.04 92 1012.2
20260903210516 73 137 1.0 7.0 0.02 0.04 0.04 91 1012.1
20260903210036 73 134 4.0 8.0 0.01 0.03 0.03 92 1012.0
20260903205537 73 133 4.0 8.0 0.01 0.03 0.03 91 1012.0
20260903205016 73 152 4.0 8.0 0.01 0.03 0.03 91 1012.2
20260903204517 73 159 4.0 9.0 0.01 0.03 0.03 90 1012.5
20260903204016 73 175 6.0 10.0 0.01 0.03 0.03 89 1012.9
20260903203516 73 168 4.0 10.0 0.01 0.03 0.03 88 1012.6
20260903203017 74 168 1.0 4.0 0.01 0.03 0.03 87 1012.7
20260903202516 74 227 2.0 5.0 0.01 0.03 0.03 87 1013.0
20260903202036 74 271 2.0 7.0 0.02 0.03 0.03 85 1013.2
20260903201536 74 304 3.0 7.0 0.02 0.03 0.03 85 1013.1
20260903201016 74 5 3.0 7.0 0.01 0.02 0.02 84 1012.8
20260903200536 74 10 4.0 7.0 0.01 0.02 0.02 84 1012.7
20260903200017 74 1 3.0 9.0 0.01 0.02 0.02 84 1012.5
20260903195516 74 13 4.0 9.0 0.01 0.02 0.02 85 1012.3
20260903195016 74 5 6.0 10.0 0.01 0.02 0.02 86 1012.2
20260903194516 74 359 6.0 11.0 0.02 0.02 0.02 87 1012.0
20260903194016 74 8 7.0 11.0 0.02 0.02 0.02 88 1011.9
20260903193516 73 18 7.0 10.0 0.02 0.02 0.02 88 1011.8
20260903193036 73 0 4.0 7.0 0.02 0.02 0.02 89 1012.1
20260903192516 73 23 2.0 9.0 0.02 0.02 0.02 88 1011.9
20260903192016 73 47 4.0 10.0 0.01 0.01 0.01 88 1011.7
20260903191516 73 38 5.0 10.0 0.01 0.01 0.01 88 1012.2
20260903191015 73 11 4.0 12.0 0.01 0.01 0.01 88 1012.7
20260903190516 73 11 7.0 12.0 0.01 0.01 0.01 87 1013.0
20260903190016 74 353 5.0 9.0 0.01 0.01 0.01 88 1013.1
20260903185536 74 306 5.0 9.0 0.01 0.01 0.01 88 1013.9
20260903185015 74 303 5.0 10.0 0.01 0.01 0.01 87 1014.1
20260903184516 74 318 5.0 10.0 0.00 0.00 0.00 87 1014.0
20260903184016 75 321 6.0 12.0 0.00 0.00 0.00 86 1014.0
20260903183515 75 329 7.0 12.0 0.00 0.00 0.00 85 1014.1
20260903183017 76 303 6.0 12.0 0.00 0.00 0.00 83 1014.4
20260903182517 76 304 8.0 14.0 0.00 0.00 0.00 82 1014.5
20260903182017 77 298 8.0 14.0 0.00 0.00 0.00 82 1014.5
20260903181536 78 294 7.0 13.0 0.00 0.00 0.00 82 1014.4
20260903181015 79 298 9.0 19.0 0.00 0.00 0.00 79 1014.0
20260903180515 79 301 10.0 23.0 0.00 0.00 0.00 77 1014.2
20260903180017 80 308 14.0 23.0 0.00 0.00 0.00 76 1014.2
20260903175515 81 301 12.0 22.0 0.00 0.00 0.00 74 1014.2
20260903175015 81 307 10.0 19.0 0.00 0.00 0.00 75 1013.9
20260903174517 82 307 7.0 15.0 0.00 0.00 0.00 75 1013.4
20260903174015 82 298 9.0 17.0 0.00 0.00 0.00 74 1013.3
20260903173515 82 306 9.0 17.0 0.00 0.00 0.00 74 1013.2
20260903173017 83 308 8.0 14.0 0.00 0.00 0.00 72 1013.0
20260903172557 83 302 6.0 13.0 0.00 0.00 0.00 72 1012.7
20260903172035 83 299 7.0 13.0 0.00 0.00 0.00 72 1012.6
20260903171516 84 302 8.0 12.0 0.00 0.00 0.00 71 1012.6
20260903171015 84 300 7.0 12.0 0.00 0.00 0.00 71 1012.3
20260903170536 84 284 6.0 12.0 0.00 0.00 0.00 71 1012.1
20260903170035 84 270 8.0 13.0 0.00 0.00 0.00 70 1011.9
20260903165515 84 246 9.0 13.0 0.00 0.00 0.00 70 1011.7